EW0397 Weather Reports


time (UTC)temp
F
wind
direction
speed
knots
gust
knots
rain 1hr
in
rain 24hr
in
rain mn
in
humidity
%
barometer
mb
20260509184600 52 307 0.0 0.0 0.00 0.06 0.06 79 1013.7
20260509183048 52 307 0.0 0.0 0.00 0.06 0.06 79 1013.6
20260509181548 53 307 0.0 0.0 0.00 0.06 0.06 78 1013.7
20260509180047 53 307 0.0 0.0 0.00 0.06 0.06 76 1013.5
20260509174546 54 307 0.0 0.0 0.00 0.06 0.06 75 1013.4
20260509173055 55 307 0.0 0.0 0.00 0.06 0.06 74 1013.4
20260509171603 55 307 0.0 0.0 0.00 0.06 0.06 72 1013.4
20260509170045 56 307 0.0 0.0 0.00 0.06 0.06 71 1013.3
20260509164544 56 307 0.0 0.0 0.00 0.06 0.06 70 1013.2
20260509163046 57 307 0.0 0.0 0.00 0.06 0.06 68 1013.1
20260509161546 58 307 0.0 0.0 0.01 0.06 0.06 66 1012.8
20260509160042 59 307 0.0 0.0 0.01 0.06 0.06 64 1012.7
20260509154546 60 307 0.0 0.0 0.01 0.06 0.06 61 1012.6
20260509153041 62 307 0.0 0.0 0.01 0.06 0.06 60 1012.5
20260509151539 63 307 0.0 0.0 0.00 0.05 0.05 58 1012.5
20260509150041 64 307 0.0 0.0 0.00 0.05 0.05 57 1012.5
20260509144612 65 312 0.0 0.0 0.05 0.05 0.05 54 1012.4
20260509143045 66 250 0.0 0.0 0.05 0.05 0.05 52 1012.4
20260509141542 66 291 0.0 0.0 0.05 0.05 0.05 52 1012.4
20260509140036 67 302 0.0 0.0 0.05 0.05 0.05 52 1012.5
20260509134535 68 310 0.0 0.0 0.00 0.00 0.00 50 1012.4
20260509133035 68 285 0.0 0.0 0.00 0.00 0.00 48 1012.5
20260509131539 69 292 0.0 0.0 0.00 0.00 0.00 48 1012.6
20260509130032 68 217 0.0 0.0 0.00 0.00 0.00 48 1012.9
20260509124538 68 308 0.0 0.0 0.00 0.00 0.00 48 1013.0
20260509123030 69 324 0.0 0.0 0.00 0.00 0.00 47 1013.0
20260509121531 68 253 0.0 0.0 0.00 0.00 0.00 50 1013.1
20260509120024 68 283 0.0 0.0 0.00 0.00 0.00 51 1013.3
20260509114521 67 233 0.0 0.0 0.00 0.00 0.00 51 1013.5
20260509113019 67 260 0.0 0.0 0.00 0.00 0.00 52 1013.8
20260509111515 66 264 0.0 0.0 0.00 0.00 0.00 54 1014.0
20260509110013 65 283 0.0 0.0 0.00 0.00 0.00 52 1014.5
20260509104527 65 310 0.0 0.0 0.00 0.00 0.00 52 1014.8
20260509103006 64 316 0.0 0.0 0.00 0.00 0.00 54 1015.0
20260509101502 63 290 0.0 0.0 0.00 0.00 0.00 56 1015.2
20260509100106 63 315 0.0 0.0 0.00 0.00 0.00 56 1015.6
20260509094556 62 91 0.0 0.0 0.00 0.00 0.00 58 1016.1
20260509093056 62 227 0.0 0.0 0.00 0.00 0.00 59 1016.3
20260509091552 61 285 0.0 0.0 0.00 0.00 0.00 60 1016.5
20260509090049 60 300 0.0 0.0 0.00 0.00 0.00 61 1016.6
20260509084552 59 293 0.0 0.0 0.00 0.00 0.00 62 1016.8
20260509083044 58 302 0.0 0.0 0.00 0.00 0.00 63 1017.0
20260509081545 57 324 0.0 0.0 0.00 0.00 0.00 65 1017.2
20260509080040 56 296 0.0 0.0 0.00 0.00 0.00 66 1017.4
20260509074535 54 277 0.0 0.0 0.00 0.00 0.00 70 1017.6
20260509073027 52 179 0.0 0.0 0.00 0.00 0.00 74 1017.7
20260509071522 50 305 0.0 0.0 0.00 0.00 0.00 80 1017.6
20260509070019 47 305 0.0 0.0 0.00 0.00 0.00 85 1017.4
20260509064514 46 305 0.0 0.0 0.00 0.00 0.00 89 1017.1
20260509063009 44 305 0.0 0.0 0.00 0.00 0.00 95 1016.9
20260509061506 42 305 0.0 0.0 0.00 0.00 0.00 97 1016.7
20260509060005 41 305 0.0 0.0 0.00 0.00 0.00 97 1016.7
20260509054504 40 305 0.0 0.0 0.00 0.00 0.00 98 1016.6
20260509053002 39 305 0.0 0.0 0.00 0.00 0.00 97 1016.4
20260509051601 38 305 0.0 0.0 0.00 0.00 0.00 96 1016.4
20260509050101 38 305 0.0 0.0 0.00 0.00 0.00 96 1016.2
20260509044558 38 305 0.0 0.0 0.00 0.00 0.00 96 1016.2
20260509043104 38 305 0.0 0.0 0.00 0.00 0.00 96 1016.0
20260509041555 38 305 0.0 0.0 0.00 0.00 0.00 95 1015.8
20260509040056 38 305 0.0 0.0 0.00 0.00 0.00 95 1015.7
20260509034601 39 305 0.0 0.0 0.00 0.00 0.00 95 1015.7
20260509033052 39 305 0.0 0.0 0.00 0.00 0.00 95 1015.7
20260509031559 39 305 0.0 0.0 0.00 0.00 0.00 95 1015.7
20260509030051 39 305 0.0 0.0 0.00 0.00 0.00 95 1015.7
20260509024549 39 305 0.0 0.0 0.00 0.00 0.00 94 1015.5
20260509023056 40 305 0.0 0.0 0.00 0.00 0.00 95 1015.4
20260509021547 40 305 0.0 0.0 0.00 0.00 0.00 95 1015.6
20260509020050 40 305 0.0 0.0 0.00 0.00 0.00 94 1015.5
20260509014546 40 305 0.0 0.0 0.00 0.00 0.00 94 1015.6
20260509013106 40 305 0.0 0.0 0.00 0.00 0.00 94 1015.7
20260509011544 40 305 0.0 0.0 0.00 0.00 0.00 94 1015.7
20260509010042 40 305 0.0 0.0 0.00 0.00 0.00 93 1015.7
20260509004541 41 305 0.0 0.0 0.00 0.00 0.00 93 1015.7
20260509003040 41 305 0.0 0.0 0.00 0.00 0.00 93 1015.6
20260509001539 41 305 0.0 0.0 0.00 0.00 0.00 94 1015.7
20260509000038 41 305 0.0 0.0 0.00 0.00 0.00 93 1015.7
20260508234537 41 305 0.0 0.0 0.00 0.00 0.00 93 1015.9
20260508233037 41 305 0.0 0.0 0.00 0.00 0.00 93 1015.8
20260508231535 41 305 0.0 0.0 0.00 0.00 0.00 93 1015.7
20260508230104 41 305 0.0 0.0 0.00 0.00 0.00 93 1015.6
20260508224554 42 305 0.0 0.0 0.00 0.00 0.00 92 1015.7
20260508223033 42 305 0.0 0.0 0.00 0.00 0.00 92 1015.5
20260508221529 42 305 0.0 0.0 0.00 0.00 0.00 91 1015.4
20260508220026 42 305 0.0 0.0 0.00 0.00 0.00 91 1015.4
20260508214526 43 305 0.0 0.0 0.00 0.00 0.00 90 1015.6
20260508213026 43 305 0.0 0.0 0.00 0.00 0.00 90 1015.7
20260508211525 43 305 0.0 0.0 0.00 0.00 0.00 90 1015.9
20260508210026 44 305 0.0 0.0 0.00 0.00 0.00 90 1016.0
20260508204524 44 305 0.0 0.0 0.00 0.00 0.00 90 1016.0
20260508203024 44 305 0.0 0.0 0.00 0.00 0.00 90 1016.0
20260508201528 44 302 0.0 0.0 0.00 0.00 0.00 90 1016.1
20260508200026 45 302 0.0 0.0 0.00 0.00 0.00 89 1016.0
20260508194523 45 302 0.0 0.0 0.00 0.00 0.00 88 1016.0
20260508193048 45 302 0.0 0.0 0.00 0.00 0.00 88 1015.9
20260508191525 46 302 0.0 0.0 0.00 0.00 0.00 87 1015.8
20260508190032 46 302 0.0 0.0 0.00 0.00 0.00 86 1015.8